| time (UTC) | temp C | wind direction | speed KPH | gust KPH | rain 1hr cm | rain 24hr cm | rain mn cm | humidity % | barometer mb |
| 20260506080828 | 11 | 22 | 0.0 | 0.0 | 0.00 | 0.00 | 0.00 | 94 | 980.6 |
| 20260506080327 | 11 | 22 | 0.0 | 0.0 | 0.00 | 0.00 | 0.00 | 94 | 980.6 |
| 20260506073313 | 11 | 22 | 0.0 | 0.0 | 0.00 | 0.00 | 0.00 | 96 | 980.6 |
| 20260506072815 | 11 | 22 | 0.0 | 0.0 | 0.00 | 0.00 | 0.00 | 96 | 980.6 |
| 20260506072313 | 11 | 22 | 0.0 | 0.0 | 0.00 | 0.00 | 0.00 | 96 | 980.5 |
| 20260506071306 | 11 | 22 | 0.0 | 0.0 | 0.00 | 0.00 | 0.00 | 96 | 980.4 |
| 20260506070800 | 11 | 22 | 0.0 | 0.0 | 0.00 | 0.00 | 0.00 | 96 | 980.4 |
| 20260506070254 | 10 | 22 | 0.0 | 0.0 | 0.00 | 0.00 | 0.00 | 96 | 980.3 |
| 20260506062207 | 10 | 22 | 0.0 | 0.0 | 0.00 | 0.00 | 0.00 | 95 | 980.3 |
| 20260506061155 | 10 | 22 | 0.0 | 0.0 | 0.00 | 0.00 | 0.00 | 95 | 980.3 |
| 20260506060648 | 10 | 22 | 0.0 | 0.0 | 0.00 | 0.00 | 0.00 | 94 | 980.2 |
| 20260506060142 | 10 | 22 | 0.0 | 0.0 | 0.00 | 0.00 | 0.00 | 94 | 980.1 |
| 20260506051042 | 10 | 22 | 0.0 | 0.0 | 0.00 | 0.00 | 0.00 | 92 | 979.9 |
| 20260506050537 | 10 | 22 | 0.0 | 0.0 | 0.00 | 0.00 | 0.00 | 91 | 979.8 |
| 20260506045019 | 11 | 21 | 0.0 | 0.0 | 0.00 | 0.00 | 0.00 | 91 | 979.7 |
| 20260506044513 | 11 | 0 | 0.0 | 0.0 | 0.00 | 0.00 | 0.00 | 91 | 979.7 |
| 20260506044007 | 11 | 0 | 0.0 | 0.0 | 0.00 | 0.00 | 0.00 | 90 | 979.6 |
| 20260506042955 | 11 | 0 | 0.0 | 0.0 | 0.00 | 0.00 | 0.00 | 89 | 979.4 |
| 20260506042449 | 12 | 0 | 0.0 | 0.0 | 0.00 | 0.00 | 0.00 | 88 | 979.3 |
| 20260506041943 | 12 | 0 | 0.0 | 0.0 | 0.00 | 0.00 | 0.00 | 88 | 979.3 |
| 20260506041437 | 12 | 0 | 0.0 | 0.0 | 0.00 | 0.00 | 0.00 | 88 | 979.2 |
| 20260506040931 | 12 | 0 | 0.0 | 0.0 | 0.00 | 0.00 | 0.00 | 88 | 979.2 |
| 20260506040425 | 12 | 0 | 0.0 | 0.0 | 0.00 | 0.00 | 0.00 | 88 | 979.2 |
| 20260506035413 | 13 | 339 | 0.0 | 0.0 | 0.00 | 0.00 | 0.00 | 87 | 979.0 |
| 20260506034906 | 13 | 339 | 0.0 | 0.0 | 0.00 | 0.00 | 0.00 | 86 | 979.0 |
| 20260506034401 | 13 | 338 | 0.0 | 0.0 | 0.00 | 0.00 | 0.00 | 86 | 978.9 |
| 20260506033855 | 13 | 337 | 1.6 | 3.2 | 0.00 | 0.00 | 0.00 | 85 | 978.7 |
| 20260506033349 | 13 | 346 | 3.2 | 4.8 | 0.00 | 0.00 | 0.00 | 85 | 978.6 |
| 20260506032843 | 13 | 332 | 3.2 | 4.8 | 0.00 | 0.00 | 0.00 | 84 | 978.6 |
| 20260506032337 | 14 | 330 | 1.6 | 4.8 | 0.00 | 0.00 | 0.00 | 83 | 978.6 |
| 20260506031834 | 14 | 330 | 1.6 | 6.4 | 0.00 | 0.00 | 0.00 | 83 | 978.5 |
| 20260506031333 | 15 | 347 | 1.6 | 6.4 | 0.00 | 0.00 | 0.00 | 82 | 978.4 |
| 20260506030832 | 15 | 325 | 1.6 | 4.8 | 0.00 | 0.00 | 0.00 | 82 | 978.5 |
| 20260506030333 | 15 | 319 | 1.6 | 4.8 | 0.00 | 0.00 | 0.00 | 82 | 978.5 |
| 20260506025833 | 15 | 277 | 1.6 | 6.4 | 0.00 | 0.00 | 0.00 | 81 | 978.4 |
| 20260506025332 | 15 | 271 | 1.6 | 6.4 | 0.00 | 0.00 | 0.00 | 81 | 978.3 |
| 20260506024832 | 15 | 260 | 1.6 | 9.7 | 0.00 | 0.00 | 0.00 | 81 | 978.3 |
| 20260506024330 | 15 | 277 | 3.2 | 9.7 | 0.00 | 0.00 | 0.00 | 80 | 978.4 |
| 20260506023829 | 15 | 280 | 3.2 | 6.4 | 0.00 | 0.00 | 0.00 | 80 | 978.3 |
| 20260506023331 | 16 | 292 | 1.6 | 6.4 | 0.00 | 0.00 | 0.00 | 79 | 978.3 |
| 20260506022831 | 16 | 277 | 1.6 | 6.4 | 0.00 | 0.00 | 0.00 | 79 | 978.3 |
| 20260506022331 | 16 | 284 | 3.2 | 8.0 | 0.00 | 0.00 | 0.00 | 79 | 978.2 |
| 20260506021831 | 16 | 265 | 4.8 | 11.3 | 0.00 | 0.00 | 0.00 | 78 | 978.2 |
| 20260506021331 | 16 | 243 | 4.8 | 11.3 | 0.00 | 0.00 | 0.00 | 77 | 978.2 |
| 20260506020831 | 16 | 225 | 4.8 | 11.3 | 0.00 | 0.00 | 0.00 | 77 | 978.2 |
| 20260506020325 | 16 | 278 | 3.2 | 11.3 | 0.00 | 0.00 | 0.00 | 78 | 978.1 |
| 20260506015827 | 16 | 254 | 4.8 | 11.3 | 0.00 | 0.00 | 0.00 | 77 | 978.1 |
| 20260506014825 | 16 | 214 | 3.2 | 11.3 | 0.00 | 0.00 | 0.00 | 79 | 978.1 |
| 20260506013327 | 17 | 208 | 6.4 | 14.5 | 0.00 | 0.00 | 0.00 | 77 | 978.0 |
| 20260506012825 | 17 | 232 | 6.4 | 14.5 | 0.00 | 0.00 | 0.00 | 77 | 978.0 |
| 20260506012327 | 17 | 253 | 4.8 | 16.1 | 0.00 | 0.00 | 0.00 | 76 | 977.9 |
| 20260506011826 | 17 | 298 | 4.8 | 16.1 | 0.00 | 0.00 | 0.00 | 76 | 978.0 |
| 20260506011326 | 17 | 279 | 3.2 | 12.9 | 0.00 | 0.00 | 0.00 | 76 | 977.9 |
| 20260506010825 | 17 | 209 | 4.8 | 12.9 | 0.00 | 0.00 | 0.00 | 76 | 977.9 |
| 20260506005325 | 17 | 200 | 4.8 | 11.3 | 0.00 | 0.00 | 0.00 | 76 | 977.8 |
| 20260506004825 | 17 | 189 | 6.4 | 14.5 | 0.00 | 0.00 | 0.00 | 77 | 977.8 |
| 20260506004326 | 17 | 139 | 6.4 | 14.5 | 0.00 | 0.00 | 0.00 | 79 | 977.9 |
| 20260506003827 | 17 | 37 | 4.8 | 14.5 | 0.00 | 0.00 | 0.00 | 80 | 978.0 |
| 20260506002308 | 16 | 246 | 4.8 | 12.9 | 0.00 | 0.00 | 0.00 | 77 | 977.9 |
| 20260506001802 | 16 | 286 | 6.4 | 14.5 | 0.00 | 0.00 | 0.00 | 80 | 977.9 |
| 20260506001256 | 16 | 238 | 8.0 | 14.5 | 0.00 | 0.00 | 0.00 | 78 | 978.0 |
| 20260506000750 | 16 | 240 | 8.0 | 17.7 | 0.00 | 0.00 | 0.00 | 78 | 978.0 |
| 20260506000243 | 16 | 221 | 8.0 | 17.7 | 0.00 | 0.00 | 0.00 | 78 | 978.0 |
| 20260505235739 | 16 | 226 | 6.4 | 14.5 | 0.00 | 0.00 | 0.00 | 77 | 978.0 |
| 20260505234725 | 16 | 223 | 6.4 | 16.1 | 0.00 | 0.00 | 0.00 | 78 | 978.2 |
| 20260505234218 | 16 | 270 | 4.8 | 20.9 | 0.00 | 0.00 | 0.00 | 79 | 978.2 |
| 20260505233206 | 16 | 241 | 9.7 | 20.9 | 0.00 | 0.00 | 0.00 | 77 | 978.2 |
| 20260505232700 | 16 | 232 | 8.0 | 20.9 | 0.00 | 0.00 | 0.00 | 78 | 978.2 |
| 20260505232154 | 16 | 253 | 8.0 | 17.7 | 0.00 | 0.00 | 0.00 | 78 | 978.2 |
| 20260505231648 | 16 | 219 | 9.7 | 17.7 | 0.00 | 0.00 | 0.00 | 77 | 978.1 |
| 20260505231142 | 16 | 215 | 8.0 | 16.1 | 0.00 | 0.00 | 0.00 | 76 | 978.2 |
| 20260505230636 | 16 | 221 | 8.0 | 20.9 | 0.00 | 0.00 | 0.00 | 77 | 978.2 |
| 20260505230130 | 16 | 244 | 8.0 | 20.9 | 0.00 | 0.00 | 0.00 | 78 | 978.2 |
| 20260505225623 | 16 | 61 | 9.7 | 24.1 | 0.00 | 0.00 | 0.00 | 77 | 978.3 |
| 20260505225116 | 16 | 270 | 11.3 | 24.1 | 0.00 | 0.00 | 0.00 | 76 | 978.3 |
| 20260505223052 | 17 | 264 | 8.0 | 19.3 | 0.00 | 0.00 | 0.00 | 77 | 978.4 |
| 20260505222546 | 17 | 311 | 6.4 | 16.1 | 0.00 | 0.00 | 0.00 | 76 | 978.4 |
| 20260505222040 | 17 | 283 | 8.0 | 22.5 | 0.00 | 0.00 | 0.00 | 76 | 978.5 |
| 20260505221534 | 17 | 236 | 11.3 | 22.5 | 0.00 | 0.00 | 0.00 | 76 | 978.5 |
| 20260505221027 | 17 | 223 | 9.7 | 20.9 | 0.00 | 0.00 | 0.00 | 75 | 978.5 |
| 20260505220522 | 17 | 212 | 11.3 | 22.5 | 0.00 | 0.00 | 0.00 | 73 | 978.4 |
| 20260505220016 | 17 | 269 | 9.7 | 24.1 | 0.00 | 0.00 | 0.00 | 75 | 978.5 |
| 20260505215510 | 17 | 250 | 11.3 | 24.1 | 0.00 | 0.00 | 0.00 | 73 | 978.5 |
| 20260505215004 | 17 | 241 | 11.3 | 22.5 | 0.00 | 0.00 | 0.00 | 74 | 978.6 |
| 20260505214458 | 17 | 232 | 11.3 | 22.5 | 0.00 | 0.00 | 0.00 | 74 | 978.5 |
| 20260505213952 | 18 | 235 | 9.7 | 22.5 | 0.00 | 0.00 | 0.00 | 73 | 978.6 |
| 20260505213446 | 18 | 263 | 9.7 | 19.3 | 0.00 | 0.00 | 0.00 | 74 | 978.5 |
| 20260505212940 | 18 | 261 | 9.7 | 19.3 | 0.00 | 0.00 | 0.00 | 75 | 978.6 |
| 20260505212434 | 18 | 274 | 11.3 | 22.5 | 0.00 | 0.00 | 0.00 | 75 | 978.5 |
| 20260505211928 | 18 | 239 | 11.3 | 24.1 | 0.00 | 0.00 | 0.00 | 73 | 978.5 |
| 20260505211422 | 18 | 199 | 9.7 | 24.1 | 0.00 | 0.00 | 0.00 | 73 | 978.6 |
| 20260505210916 | 18 | 201 | 8.0 | 19.3 | 0.00 | 0.00 | 0.00 | 75 | 978.6 |
| 20260505210409 | 18 | 241 | 9.7 | 19.3 | 0.00 | 0.00 | 0.00 | 73 | 978.5 |
| 20260505205904 | 18 | 215 | 9.7 | 17.7 | 0.00 | 0.00 | 0.00 | 72 | 978.6 |
| 20260505205358 | 18 | 287 | 9.7 | 19.3 | 0.00 | 0.00 | 0.00 | 72 | 978.6 |
| 20260505204852 | 18 | 251 | 9.7 | 19.3 | 0.00 | 0.00 | 0.00 | 75 | 978.6 |
| 20260505204346 | 18 | 276 | 9.7 | 17.7 | 0.00 | 0.00 | 0.00 | 72 | 978.6 |
| 20260505203840 | 18 | 300 | 8.0 | 16.1 | 0.00 | 0.00 | 0.00 | 77 | 978.6 |
| 20260505203334 | 17 | 280 | 8.0 | 17.7 | 0.00 | 0.00 | 0.00 | 75 | 978.7 |
| 20260505202828 | 17 | 257 | 8.0 | 17.7 | 0.00 | 0.00 | 0.00 | 76 | 978.6 |
| 20260505202322 | 17 | 250 | 6.4 | 16.1 | 0.00 | 0.00 | 0.00 | 78 | 978.7 |
| 20260505201817 | 17 | 227 | 6.4 | 14.5 | 0.00 | 0.00 | 0.00 | 78 | 978.7 |
| 20260505200804 | 17 | 248 | 6.4 | 12.9 | 0.00 | 0.00 | 0.00 | 77 | 978.8 |
| 20260505200304 | 17 | 250 | 6.4 | 16.1 | 0.00 | 0.00 | 0.00 | 76 | 978.8 |
| 20260505195804 | 17 | 163 | 6.4 | 16.1 | 0.00 | 0.00 | 0.00 | 77 | 978.9 |
| 20260505194803 | 17 | 288 | 4.8 | 12.9 | 0.00 | 0.00 | 0.00 | 76 | 978.9 |
| 20260505194303 | 16 | 211 | 6.4 | 16.1 | 0.00 | 0.00 | 0.00 | 82 | 978.9 |
| 20260505193803 | 16 | 227 | 8.0 | 16.1 | 0.00 | 0.00 | 0.00 | 80 | 978.9 |
| 20260505193304 | 16 | 219 | 8.0 | 16.1 | 0.00 | 0.00 | 0.00 | 76 | 978.9 |
| 20260505192803 | 17 | 259 | 6.4 | 14.5 | 0.00 | 0.00 | 0.00 | 75 | 979.0 |
| 20260505192305 | 17 | 238 | 8.0 | 14.5 | 0.00 | 0.00 | 0.00 | 78 | 979.0 |
| 20260505191802 | 17 | 246 | 8.0 | 14.5 | 0.00 | 0.00 | 0.00 | 80 | 978.9 |
| 20260505191303 | 16 | 243 | 8.0 | 17.7 | 0.00 | 0.00 | 0.00 | 83 | 978.9 |
| 20260505190802 | 16 | 182 | 6.4 | 17.7 | 0.00 | 0.00 | 0.00 | 82 | 978.9 |
| 20260505190300 | 16 | 205 | 6.4 | 16.1 | 0.00 | 0.00 | 0.00 | 81 | 979.0 |
| 20260505185758 | 15 | 266 | 6.4 | 19.3 | 0.00 | 0.00 | 0.00 | 81 | 979.0 |
| 20260505185300 | 15 | 161 | 6.4 | 19.3 | 0.00 | 0.00 | 0.00 | 82 | 979.0 |
| 20260505184759 | 15 | 316 | 4.8 | 14.5 | 0.00 | 0.00 | 0.00 | 82 | 979.0 |
| 20260505184301 | 15 | 267 | 6.4 | 14.5 | 0.00 | 0.00 | 0.00 | 83 | 979.1 |
| 20260505183754 | 15 | 268 | 6.4 | 12.9 | 0.00 | 0.00 | 0.00 | 85 | 979.1 |
| 20260505183255 | 15 | 184 | 6.4 | 12.9 | 0.00 | 0.00 | 0.00 | 87 | 979.2 |
| 20260505182755 | 15 | 242 | 6.4 | 12.9 | 0.00 | 0.00 | 0.00 | 84 | 979.2 |
| 20260505182255 | 14 | 197 | 6.4 | 12.9 | 0.00 | 0.00 | 0.00 | 87 | 979.2 |
| 20260505181755 | 14 | 198 | 6.4 | 14.5 | 0.00 | 0.00 | 0.00 | 88 | 979.1 |
| 20260505181255 | 13 | 235 | 6.4 | 14.5 | 0.00 | 0.00 | 0.00 | 87 | 979.1 |
| 20260505180754 | 13 | 254 | 6.4 | 12.9 | 0.00 | 0.00 | 0.00 | 86 | 979.1 |
| 20260505180254 | 13 | 287 | 6.4 | 12.9 | 0.00 | 0.00 | 0.00 | 89 | 979.1 |
| 20260505175755 | 13 | 229 | 4.8 | 11.3 | 0.00 | 0.00 | 0.00 | 88 | 979.1 |
| 20260505174755 | 13 | 201 | 6.4 | 12.9 | 0.00 | 0.00 | 0.00 | 89 | 979.1 |
| 20260505174255 | 13 | 271 | 4.8 | 12.9 | 0.00 | 0.00 | 0.00 | 91 | 979.1 |
| 20260505173754 | 13 | 184 | 4.8 | 12.9 | 0.00 | 0.00 | 0.00 | 90 | 979.1 |
| 20260505173256 | 13 | 188 | 3.2 | 11.3 | 0.00 | 0.00 | 0.00 | 92 | 979.1 |
| 20260505172755 | 12 | 198 | 3.2 | 11.3 | 0.00 | 0.00 | 0.00 | 92 | 979.0 |
| 20260505172256 | 12 | 155 | 4.8 | 9.7 | 0.00 | 0.00 | 0.00 | 94 | 979.0 |
| 20260505171756 | 12 | 261 | 4.8 | 9.7 | 0.00 | 0.00 | 0.00 | 92 | 979.0 |
| 20260505171256 | 12 | 199 | 4.8 | 9.7 | 0.00 | 0.00 | 0.00 | 93 | 979.0 |
| 20260505170755 | 12 | 257 | 3.2 | 11.3 | 0.00 | 0.00 | 0.00 | 93 | 979.0 |
| 20260505170256 | 12 | 266 | 4.8 | 11.3 | 0.00 | 0.00 | 0.00 | 95 | 979.0 |
| 20260505165755 | 11 | 244 | 4.8 | 8.0 | 0.00 | 0.00 | 0.00 | 94 | 979.0 |
| 20260505165254 | 11 | 233 | 4.8 | 8.0 | 0.00 | 0.00 | 0.00 | 94 | 979.0 |
| 20260505164754 | 11 | 175 | 4.8 | 11.3 | 0.00 | 0.00 | 0.00 | 94 | 979.0 |
| 20260505164255 | 11 | 254 | 4.8 | 11.3 | 0.00 | 0.00 | 0.00 | 94 | 979.1 |
| 20260505163756 | 11 | 276 | 4.8 | 8.0 | 0.00 | 0.00 | 0.00 | 95 | 979.0 |
| 20260505163255 | 11 | 212 | 4.8 | 8.0 | 0.00 | 0.00 | 0.00 | 96 | 979.0 |
| 20260505162756 | 11 | 257 | 4.8 | 9.7 | 0.00 | 0.00 | 0.00 | 96 | 979.0 |
| 20260505162254 | 11 | 247 | 3.2 | 9.7 | 0.00 | 0.00 | 0.00 | 96 | 979.0 |
| 20260505161754 | 11 | 231 | 3.2 | 8.0 | 0.00 | 0.00 | 0.00 | 97 | 979.1 |
| 20260505161254 | 11 | 219 | 3.2 | 8.0 | 0.00 | 0.00 | 0.00 | 97 | 979.1 |
| 20260505160754 | 11 | 205 | 3.2 | 6.4 | 0.00 | 0.00 | 0.00 | 97 | 979.0 |
| 20260505153219 | 11 | 243 | 3.2 | 6.4 | 0.00 | 0.00 | 0.00 | 97 | 979.0 |
| 20260505152713 | 11 | 232 | 3.2 | 6.4 | 0.00 | 0.00 | 0.00 | 97 | 978.9 |
| 20260505152206 | 11 | 205 | 3.2 | 6.4 | 0.00 | 0.00 | 0.00 | 97 | 978.9 |
| 20260505151700 | 11 | 219 | 3.2 | 6.4 | 0.00 | 0.00 | 0.00 | 98 | 978.8 |
| 20260505151156 | 11 | 245 | 1.6 | 6.4 | 0.00 | 0.00 | 0.00 | 97 | 978.8 |
| 20260505150649 | 11 | 254 | 1.6 | 4.8 | 0.00 | 0.00 | 0.00 | 98 | 978.8 |
| 20260505150144 | 11 | 194 | 1.6 | 6.4 | 0.00 | 0.00 | 0.00 | 98 | 978.8 |
| 20260505140537 | 10 | 220 | 1.6 | 4.8 | 0.00 | 0.00 | 0.00 | 97 | 978.3 |
| 20260505124907 | 10 | 251 | 1.6 | 6.4 | 0.00 | 0.00 | 0.00 | 96 | 978.1 |
| 20260505124401 | 10 | 236 | 0.0 | 0.0 | 0.00 | 0.00 | 0.00 | 96 | 978.0 |
| 20260505123856 | 10 | 250 | 0.0 | 0.0 | 0.00 | 0.00 | 0.00 | 96 | 977.9 |
| 20260505122842 | 10 | 246 | 0.0 | 0.0 | 0.00 | 0.00 | 0.00 | 96 | 977.9 |
| 20260505122337 | 10 | 246 | 0.0 | 3.2 | 0.00 | 0.00 | 0.00 | 96 | 977.9 |
| 20260505121325 | 10 | 257 | 1.6 | 4.8 | 0.00 | 0.00 | 0.00 | 96 | 977.8 |
| 20260505120819 | 10 | 257 | 1.6 | 4.8 | 0.00 | 0.00 | 0.00 | 96 | 977.8 |
| 20260505120313 | 10 | 280 | 0.0 | 3.2 | 0.00 | 0.00 | 0.00 | 96 | 977.8 |
| 20260505115807 | 10 | 261 | 0.0 | 0.0 | 0.00 | 0.00 | 0.00 | 96 | 977.8 |
| 20260505115301 | 10 | 261 | 0.0 | 0.0 | 0.00 | 0.00 | 0.00 | 96 | 977.7 |
| 20260505114755 | 10 | 261 | 0.0 | 0.0 | 0.00 | 0.00 | 0.00 | 96 | 977.7 |
| 20260505114249 | 10 | 261 | 0.0 | 0.0 | 0.00 | 0.00 | 0.00 | 96 | 977.7 |
| 20260505113237 | 10 | 261 | 0.0 | 0.0 | 0.00 | 0.00 | 0.00 | 96 | 977.7 |
| 20260505112731 | 10 | 261 | 0.0 | 0.0 | 0.00 | 0.00 | 0.00 | 95 | 977.7 |
| 20260505112225 | 10 | 261 | 0.0 | 0.0 | 0.00 | 0.00 | 0.00 | 96 | 977.7 |
| 20260505111720 | 10 | 261 | 0.0 | 0.0 | 0.00 | 0.00 | 0.00 | 95 | 977.7 |
| 20260505111213 | 10 | 261 | 0.0 | 3.2 | 0.00 | 0.00 | 0.00 | 95 | 977.7 |
| 20260505110707 | 10 | 241 | 0.0 | 3.2 | 0.00 | 0.00 | 0.00 | 95 | 977.7 |
| 20260505101605 | 11 | 286 | 1.6 | 6.4 | 0.00 | 0.00 | 0.00 | 94 | 977.6 |
| 20260505101106 | 11 | 260 | 3.2 | 6.4 | 0.00 | 0.00 | 0.00 | 93 | 977.6 |
| 20260505100606 | 11 | 261 | 1.6 | 4.8 | 0.00 | 0.00 | 0.00 | 93 | 977.6 |
| 20260505100105 | 11 | 242 | 1.6 | 4.8 | 0.00 | 0.00 | 0.00 | 93 | 977.5 |
| 20260505095606 | 11 | 266 | 0.0 | 3.2 | 0.00 | 0.00 | 0.00 | 92 | 977.5 |
| 20260505094605 | 11 | 246 | 3.2 | 6.4 | 0.00 | 0.00 | 0.00 | 92 | 977.4 |
| 20260505094105 | 11 | 263 | 1.6 | 6.4 | 0.00 | 0.00 | 0.00 | 91 | 977.3 |
| 20260505093607 | 11 | 242 | 1.6 | 4.8 | 0.00 | 0.00 | 0.00 | 90 | 977.2 |
| 20260505093107 | 11 | 263 | 3.2 | 4.8 | 0.00 | 0.00 | 0.00 | 90 | 977.2 |
| 20260505092107 | 11 | 273 | 3.2 | 8.0 | 0.00 | 0.00 | 0.00 | 90 | 977.1 |
| 20260505091607 | 11 | 248 | 3.2 | 8.0 | 0.00 | 0.00 | 0.00 | 89 | 977.1 |
| 20260505091102 | 11 | 277 | 3.2 | 6.4 | 0.00 | 0.00 | 0.00 | 89 | 977.1 |
| 20260505090602 | 11 | 254 | 1.6 | 6.4 | 0.00 | 0.00 | 0.00 | 89 | 977.1 |
| 20260505085601 | 11 | 306 | 3.2 | 9.7 | 0.00 | 0.00 | 0.00 | 89 | 977.1 |
| 20260505085101 | 11 | 237 | 4.8 | 9.7 | 0.00 | 0.00 | 0.00 | 89 | 977.0 |
| 20260505084601 | 11 | 263 | 4.8 | 14.5 | 0.00 | 0.00 | 0.00 | 89 | 977.0 |
| 20260505084101 | 11 | 252 | 4.8 | 14.5 | 0.00 | 0.00 | 0.00 | 89 | 977.0 |
| 20260505083602 | 12 | 269 | 6.4 | 11.3 | 0.00 | 0.00 | 0.00 | 89 | 977.0 |
| 20260505083103 | 12 | 242 | 6.4 | 11.3 | 0.00 | 0.00 | 0.00 | 89 | 977.0 |
| 20260505082602 | 12 | 283 | 6.4 | 12.9 | 0.00 | 0.00 | 0.00 | 88 | 977.0 |
| 20260505082103 | 12 | 243 | 4.8 | 12.9 | 0.00 | 0.00 | 0.00 | 88 | 976.9 |
| 20260505081602 | 12 | 247 | 4.8 | 12.9 | 0.00 | 0.00 | 0.00 | 88 | 977.0 |